Regional Weather Roundup
Issued by NWS Wilmington, NC

Home | Current Version | Previous Version | Text Only | Print | Product List | Glossary On
Versions: 1 2 3 4 5 6 7 8 9 10 11 12 13 14 15 16 17 18 19 20 21 22 23 24 25 26 27 28 29 30 31 32 33 34 35 36 37 38 39 40 41 42 43 44 45 46 47 48 49 50
000
ASUS42 KILM 020410
RWRILM
RWRILM
REGIONAL HOURLY WEATHER ROUNDUP
NATIONAL WEATHER SERVICE WILMINGTON NC
1200 AM EDT TUE SEP 02 2014

NOTE: "FAIR" INDICATES FEW OR NO CLOUDS BELOW 12,000 FEET WITH NO
SIGNIFICANT WEATHER AND/OR OBSTRUCTIONS TO VISIBILITY.

...............WFO WILMINGTON COUNTY WARNING AREA...............

......COASTAL NC AND SC COUNTIES......

CITY           SKY/WX    TMP DP  RH WIND       PRES   REMARKS
WILMINGTON     PTCLDY    79  76  90 SW7       30.09S
SOUTHPORT      PTCLDY    80  75  83 SW7       30.10R
N MYRTLE BEACH PTCLDY    83  76  79 SW10      30.09S HX  91
MYRTLE BEACH   PTCLDY    81  75  83 W5        30.10R

......INLAND NC AND SC COUNTIES.......

CITY           SKY/WX    TMP DP  RH WIND       PRES   REMARKS
LUMBERTON      MOCLDY    79  75  87 SW5       30.09R
ELIZABETHTOWN  PTCLDY    78  76  92 S3        30.09S
WHITEVILLE     PTCLDY    77  75  91 CALM      30.09S
FLORENCE       MOCLDY    79  72  79 SW5       30.09S
DARLINGTON     MOCLDY    79  68  69 S7        30.10S

....................REST OF NORTH CAROLINA......................

.........EASTERN NC.........

CITY           SKY/WX    TMP DP  RH WIND       PRES   REMARKS
CAPE HATTERAS  CLEAR     80  77  90 SW14      30.07S
JACKSONVILLE   PTCLDY    75  72  88 S5        30.10R
MOREHEAD CITY  PTCLDY    82  77  84 SW12      30.08F HX  90
KENANSVILLE    CLEAR     76  73  93 CALM      30.09S
NEW BERN       PTCLDY    79  75  87 SW5       30.09R
ELIZABETH CITY PTCLDY    80  75  84 SW10      30.04R

.........CENTRAL NC.........

CITY           SKY/WX    TMP DP  RH WIND       PRES   REMARKS
RALEIGH DURHAM PTCLDY    78  70  76 SW6       30.05F
ROCKY MOUNT    PTCLDY    80  75  84 S10       30.05S
ROANOKE RAPIDS NOT AVBL
FAYETTEVILLE   PTCLDY    81  74  79 S12       30.07S
HOFFMAN        PTCLDY    80  72  76 SW7       30.09S

.........WESTERN NC.........

CITY           SKY/WX    TMP DP  RH WIND       PRES   REMARKS
CHARLOTTE      PTCLDY    77  67  71 SW3       30.10S
GREENSBORO     PTCLDY    78  67  68 CALM      30.07S
HICKORY        NOT AVBL
BOONE          NOT AVBL
ASHEVILLE      NOT AVBL

.....................REST OF SOUTH CAROLINA.....................

.........EASTERN SC.........

CITY           SKY/WX    TMP DP  RH WIND       PRES   REMARKS
CHARLESTON     CLOUDY    81  76  84 CALM      30.09S
BEAUFORT MCAS  PTCLDY    82  77  84 SW5       30.09F HX  90
HILTON HEAD    NOT AVBL

.........CENTRAL SC.........

CITY           SKY/WX    TMP DP  RH WIND       PRES   REMARKS
COLUMBIA       MOCLDY    77  73  87 CALM      30.08F
ORANGEBURG     MOCLDY    78  73  84 SE3       30.11R
SUMTER SHAW    MOCLDY    78  76  92 SW7       30.08S

.........WESTERN SC.........

CITY           SKY/WX    TMP DP  RH WIND       PRES   REMARKS
GREENVILLE     NOT AVBL
ROCK HILL      PTCLDY    71  69  93 SW6       30.10S
ANDERSON       MOCLDY    75  72  90 CALM      30.12S
CLEMSON        NOT AVBL
GREENWOOD      MOCLDY    77  68  73 CALM      30.11F


...................COASTAL AND OFFSHORE REPORTS..................

................LOCAL PIERS AND NC RESERVE................


STATION/POSITION TIME  SKY/WX   TEMP    WIND        PRES    VSBY
                                AIR SEA DIR/SP/G
                 (UTC)          (F)     (DEG/KT/KT) (MB)    (MI)
JOHNY MRCER PIER 0400            81 84  220/ 10/ 12 1018.3S
NC RESRV MASNBRO 0300            80     220/  3     1018.0S
OCEAN CREST PIER 0400            82 85  180/ 14/ 15 1018.1R
SPRINGMAID  PIER 0400            83 84  200/ 11/ 13 1018.9R


................COASTAL AND OFFSHORE BUOYS................


STATION/POSITION TIME  SKY/WX   TEMP    WIND        PRES    VSBY
                                AIR SEA DIR/SP/G
                 (UTC)          (F)     (DEG/KT/KT) (MB)    (MI)
DIMNDSHOAL 41025 0400            82     210/ 17/ 19 1018.1S
WVE H/P(F/S)=  4/11 WND WVE H/P(F/S)=  3/ 5 SWL H/P/D(F/S/D)=  2/110/11

CAPE LOOKOUT     0300            81     220/  8/ 10 1018.6F
ONSLOW BAY 41036 0400            82 82  230/ 12/ 14 1019.3R
WVE H/P(F/S)=  3/ 9 WND WVE H/P(F/S)=  2/ 3 SWL H/P/D(F/S/D)=  2/110/ 9

5 WRITEBCH 41038 0300            79 83  220/ 14/ 16   N/A
MASONBORO  41110 0400               83                N/A
WVE H/P(F/S)=  3/ 8 WND WVE H/P(F/S)=  3/ 8

WILM HARBR 41108 0400               83                N/A
WVE H/P(F/S)=  2/ 8 WND WVE H/P(F/S)=  2/ 8

27WRITEBCH 41037 NOT AVBL
FRYING PAN 41013 NOT AVBL
SUNST NRSH 41024 0300            83     220/ 12/ 16 1018.7R
CAPRS NRSH 41029 0300            83     200/ 12/ 14   N/A
EDISTO     41004 0400            83 83  180/ 10/ 12 1018.8S
WVE H/P(F/S)=  2/ 8 WND WVE H/P(F/S)=  2/ 3 SWL H/P/D(F/S/D)=  2/ 8



..........OFFSHORE BUOYS BEYOND 100 NM OFFSHORE...........
.....IN A TRIANGLE---HAT TO BERMUDA TO BAHAMAS TO HAT.....


STATION/POSITION TIME  SKY/WX   TEMP    WIND        PRES    VSBY
                                AIR SEA DIR/SP/G
                 (UTC)          (F)     (DEG/KT/KT) (MB)    (MI)
150E HAT   41001 NOT AVBL
W BERMUDA  41048 0317            78 80  270/  2/  2 1021.0F
WVE H/P(F/S)=  4/10 SWL H/P/D(F/S/D)=  3/ 70/10

ATLANTIC S 41049 0314            84 85  100/  8/ 10 1020.0F
WVE H/P(F/S)=  6/11 WND WVE H/P(F/S)=  2/ 4 SWL H/P/D(F/S/D)=  5/ 20/11

E BAHAMAS  41046 0310            82 84  100/ 10/ 12 1018.0F
WVE H/P(F/S)=  4/ 8 WND WVE H/P(F/S)=  2/ 5 SWL H/P/D(F/S/D)=  3/ 50/ 8

NE BAHAMAS 41047 0256            81 84   90/ 10/ 12 1020.1
WVE H/P(F/S)=  4/ 8 WND WVE H/P(F/S)=  2/ 4 SWL H/P/D(F/S/D)=  3/ 90/ 8

120E CANVRL41010 0400            83 84  140/  8/  8 1020.2S
WVE H/P(F/S)=  3/ 8 SWL H/P/D(F/S/D)=  2/ 80/ 8


END



USA.gov is the U.S. government's official web portal to all federal, state and local government web resources and services.